Back to catalog

COSMOS 1275 DEB

AlivePO
NORAD 12727·DEBRIS·🇷🇺 Russia

Launched Jun 4, 1981 from Plesetsk Cosmodrome

Loading…

Next Passes (next 24 hours)

TLE

FreshSource: Space-Track

Epoch: Sep 14, 2026, 10:23 UTC

1 12727U 81053BU  26257.43282214  .00001339  00000-0  96687-3 0  9999
2 12727  83.2867 310.5094 0088349 205.6038 168.1516 13.94144522270713

Track COSMOS 1275 DEB in real time with AllMySat

Download on the App Store